CAPE
21 10 15 12 15 15 31 49 41 51 64 63 68 82 93 108 132 173 174 163 163 217 297 307 303 351 311 222 18 6 0 0 1 0 1 0 0 0 0 0 0 0 0
45 20 9 12 11 12 15 24 47 50 55 40 35 20 37 52 90 117 170 136 199 253 309 354 301 130 15 6 88 0 0 0 0 0 0 0 0 0 0 0 0 0 0
44 68 40 25 12 8 12 44 38 36 32 28 32 52 44 67 96 174 207 229 245 289 342 312 114 0 0 5 2 0 0 0 0 0 0 0 0 0 0 0 0 0 0
17 28 42 39 31 48 49 28 145 69 32 26 66 69 124 26 26 69 80 183 215 181 146 21 6 10 0 0 1 0 0 0 0 0 0 0 0 0 0 0 0 0 0
50 46 55 49 77 41 40 41 19 20 16 22 16 13 24 34 25 50 36 20 29 14 3 1 1 3 1 1 2 1 0 0 0 0 1 0 0 0 0 0 0 0 0
157 120 85 77 73 77 85 86 41 24 17 18 14 25 53 0 0 1 0 0 1 2 2 2 2 1 1 1 1 1 1 0 0 0 0 0 0 0 1 1 1 1 4
265 209 159 134 112 103 92 71 93 81 45 1 1 0 1 1 0 0 0 2 2 1 2 2 2 2 2 1 0 0 0 0 0 1 1 1 0 1 3 4 6 10 13
356 263 228 189 152 129 69 0 1 1 1 2 1 2 1 2 1 1 0 1 1 1 0 1 1 2 2 0 0 0 1 2 2 3 2 7 9 10 9 11 12 12 12
364 296 232 241 25 1 2 2 2 1 1 2 3 2 2 3 2 1 0 0 0 1 3 3 1 1 1 1 1 1 1 3 2 2 4 2 2 2 4 12 13 16 13
2 2 0 0 0 1 1 1 2 1 4 1 2 2 2 3 3 1 0 0 0 1 1 1 3 2 1 0 2 4 5 7 6 7 14 3 1 5 0 1 7 8 10
0 0 0 0 1 1 1 1 1 2 1 1 2 2 4 4 4 3 1 2 2 2 2 2 2 2 1 1 1 3 4 3 9 10 9 9 11 17 21 19 24 16 9
0 0 1 0 0 1 1 1 1 1 1 2 2 3 4 3 1 1 0 2 4 8 8 7 2 0 0 1 1 0 0 1 21 16 17 21 24 18 20 3 5 7 10
0 0 1 0 1 1 1 2 2 1 2 4 5 7 9 9 8 0 0 1 0 5 2 0 0 2 8 0 0 0 1 16 17 14 17 20 9 14 11 14 14 12 13
0 0 1 0 1 1 1 3 6 5 7 7 9 10 11 10 8 10 10 9 3 2 2 7 3 1 1 7 10 19 42 24 23 44 21 10 13 23 15 21 33 25 48
0 1 2 3 4 4 5 7 5 3 7 9 9 13 13 11 15 6 1 1 1 0 3 4 6 6 6 6 7 12 11 12 21 12 13 26 13 14 21 41 38 38 53
1 3 7 10 11 7 7 14 5 4 2 2 3 7 8 6 1 0 0 0 0 0 3 4 10 13 9 5 6 6 7 7 8 9 24 21 25 24 32 38 40 63 66
4 8 12 9 11 8 8 4 11 10 6 5 4 3 3 1 0 0 0 0 0 0 2 7 9 10 8 4 4 6 9 11 9 9 15 19 21 22 51 31 41 49 44
4 0 11 14 13 14 17 12 10 7 6 3 1 1 1 1 0 0 0 0 0 0 0 3 7 8 7 6 7 10 11 12 19 12 16 21 24 28 30 21 27 43 37
8 8 6 6 3 5 9 5 5 4 3 1 2 1 1 0 1 1 1 4 3 3 2 4 7 8 8 8 11 15 14 19 15 18 19 24 33 26 20 23 29 19 31
0 1 2 4 5 1 0 1 1 2 2 2 2 2 3 3 7 7 8 9 8 8 8 8 7 9 12 11 11 11 10 12 14 10 12 17 30 22 19 27 34 41 28
0 0 0 0 0 0 1 1 2 3 3 4 2 0 0 6 6 8 9 11 9 10 10 10 11 10 10 10 9 9 9 11 9 10 14 15 27 28 19 23 38 35 40
0 0 0 1 1 2 3 1 2 2 2 4 5 0 0 8 10 9 9 11 12 11 11 9 11 10 9 9 10 10 8 8 9 11 10 9 11 15 22 23 24 39 33
0 0 0 0 1 1 3 4 7 6 7 6 6 6 8 11 10 9 10 10 8 8 9 7 8 6 7 6 7 8 8 8 10 10 9 12 11 19 26 28 29 32 30
1 1 1 4 5 5 6 5 0 0 4 8 12 10 9 9 10 8 8 7 7 7 7 5 5 4 4 5 7 6 5 6 8 10 10 18 14 18 25 24 25 22 32
5 5 4 5 5 6 6 6 7 9 9 9 9 10 8 8 6 8 8 6 4 5 3 4 6 3 2 1 2 3 2 0 3 2 7 7 6 4 16 25 22 22 24
3 5 6 7 8 8 9 8 8 8 7 8 8 8 8 7 6 5 5 3 2 1 3 4 4 2 3 4 3 2 0 0 2 0 6 10 11 16 19 19 6 17 14
CIN
-341 -0 -284 -0 -0 -0 -0 -1 -0 -0 -0 -0 -0 -0 -0 -1 -0 -0 -0 -0 -0 -0 -0 -0 -0 -0 -1 -1 -32 -22 -0 -0 -0 -2 -0 -0 -0 -0 -0 -0 -0 -0 -0
-301 -327 -124 -0 -0 -0 -0 -0 -67 -21 -0 -0 -0 -0 -0 -2 -0 -0 -0 -0 -0 -0 -0 -0 -0 -2 -49 -49 -0 -0 -0 -0 -0 -0 -0 -0 -0 -0 -0 -0 -0 -0 -0
-275 -242 -236 -222 -42 -0 -0 -107 -93 -87 -50 -10 -15 -22 -19 -8 -0 -0 -0 -0 -0 -0 -0 -0 -6 -0 -0 -1 -0 -0 -0 -0 -0 -0 -0 -0 -0 -0 -0 -0 -0 -0 -0
-321 -290 -233 -201 -176 -130 -110 -111 -64 -70 -83 -82 -39 -30 -9 -27 -7 -1 -2 -0 -0 -0 -2 -24 -14 -13 -0 -0 -0 -0 -0 -0 -0 -0 -0 -0 -0 -0 -0 -0 -0 -0 -0
-303 -281 -245 -207 -159 -146 -117 -95 -19 -92 -91 -77 -72 -16 -40 -21 -12 -3 -11 -25 -11 -21 -21 -0 -0 -0 -0 -0 -0 -0 -0 -0 -0 -0 -0 -0 -0 -0 -0 -0 -0 -0 -0
-255 -236 -218 -209 -185 -167 -140 -116 -127 -60 -0 -1 -0 -20 -3 -0 -0 -0 -0 -0 -0 -0 -0 -0 -0 -0 -0 -0 -0 -0 -0 -0 -0 -0 -0 -0 -0 -0 -0 -0 -0 -0 -0
-206 -188 -195 -199 -188 -158 -140 -134 -110 -99 -57 -0 -0 -0 -0 -0 -0 -0 -0 -0 -0 -0 -0 -0 -0 -0 -0 -0 -0 -0 -0 -0 -0 -0 -0 -0 -0 -0 -0 -0 -0 -0 -0
-192 -170 -166 -164 -151 -143 -168 -7 -0 -0 -0 -0 -0 -0 -0 -0 -0 -0 -0 -0 -0 -0 -0 -0 -0 -0 -0 -0 -0 -0 -0 -0 -0 -0 -0 -0 -0 -0 -0 -0 -0 -0 -0
-157 -147 -163 -153 -28 -0 -0 -0 -0 -0 -0 -0 -0 -0 -0 -0 -0 -0 -0 -0 -0 -0 -0 -0 -0 -0 -0 -0 -0 -0 -0 -0 -0 -0 -0 -0 -0 -0 -0 -0 -0 -0 -0
-0 -0 -0 -0 -0 -0 -0 -0 -0 -0 -0 -0 -0 -0 -0 -0 -0 -0 -0 -0 -0 -0 -0 -0 -0 -0 -0 -0 -0 -0 -0 -0 -0 -0 -0 -0 -0 -0 -0 -0 -0 -0 -0
-0 -0 -0 -0 -0 -0 -0 -0 -0 -0 -0 -0 -0 -0 -0 -0 -0 -0 -0 -0 -0 -0 -0 -0 -0 -0 -0 -0 -0 -0 -0 -0 -0 -0 -0 -0 -0 -0 -0 -0 -0 -0 -0
-0 -0 -0 -0 -0 -0 -0 -0 -0 -0 -0 -0 -0 -0 -0 -0 -0 -0 -0 -0 -0 -0 -0 -0 -0 -0 -0 -0 -0 -0 -0 -0 -0 -0 -0 -0 -0 -0 -0 -0 -0 -0 -0
-0 -0 -0 -0 -0 -0 -0 -0 -0 -0 -0 -0 -0 -0 -0 -0 -0 -0 -0 -0 -0 -0 -0 -0 -0 -1 -0 -1 -0 -0 -7 -0 -0 -0 -0 -0 -0 -0 -0 -0 -0 -0 -0
-0 -0 -0 -0 -0 -0 -0 -0 -0 -0 -0 -0 -0 -0 -0 -0 -0 -0 -0 -0 -0 -0 -2 -0 -0 -4 -0 -0 -1 -1 -0 -0 -0 -0 -0 -0 -0 -0 -0 -0 -0 -0 -0
-0 -0 -0 -0 -0 -0 -0 -0 -0 -0 -0 -0 -0 -0 -0 -0 -0 -0 -0 -0 -0 -0 -3 -0 -0 -0 -0 -0 -0 -0 -0 -0 -0 -0 -0 -0 -0 -0 -0 -0 -0 -0 -0
-0 -0 -0 -0 -0 -0 -0 -0 -0 -0 -0 -0 -0 -0 -0 -0 -0 -0 -0 -0 -0 -0 -0 -0 -0 -0 -0 -0 -0 -0 -0 -0 -0 -0 -0 -0 -0 -0 -0 -0 -0 -0 -0
-0 -0 -0 -0 -0 -0 -0 -0 -0 -0 -0 -0 -0 -0 -0 -0 -0 -0 -0 -0 -0 -0 -0 -0 -0 -0 -0 -0 -0 -0 -0 -0 -0 -0 -0 -0 -0 -0 -0 -0 -0 -0 -0
-0 -0 -0 -0 -0 -0 -0 -0 -0 -0 -0 -0 -0 -0 -0 -0 -0 -0 -0 -0 -0 -0 -0 -0 -0 -0 -0 -0 -0 -0 -0 -0 -0 -0 -0 -0 -0 -0 -0 -0 -0 -0 -0
-0 -0 -0 -0 -0 -0 -0 -0 -0 -0 -0 -0 -0 -0 -0 -0 -0 -0 -0 -0 -0 -0 -0 -0 -0 -0 -0 -0 -0 -0 -0 -0 -0 -0 -0 -0 -0 -0 -0 -0 -0 -0 -0
-0 -0 -0 -0 -0 -0 -0 -0 -0 -0 -0 -0 -0 -0 -0 -0 -0 -0 -0 -0 -0 -0 -0 -0 -0 -0 -0 -0 -0 -0 -0 -0 -0 -0 -0 -0 -0 -0 -0 -0 -0 -0 -0
-0 -0 -0 -0 -0 -0 -0 -0 -0 -0 -0 -0 -0 -0 -0 -0 -0 -0 -0 -0 -0 -0 -0 -0 -0 -0 -0 -0 -0 -0 -0 -0 -0 -0 -0 -0 -0 -0 -0 -0 -0 -0 -0
-0 -0 -0 -0 -0 -0 -0 -0 -0 -0 -0 -0 -0 -0 -0 -0 -0 -0 -0 -0 -0 -0 -0 -0 -0 -0 -0 -0 -0 -0 -0 -0 -0 -0 -0 -0 -0 -0 -0 -0 -0 -0 -0
-0 -0 -0 -0 -0 -0 -0 -0 -0 -0 -0 -0 -0 -0 -0 -0 -0 -0 -0 -0 -0 -0 -0 -0 -0 -0 -0 -0 -0 -0 -0 -0 -0 -0 -0 -0 -0 -0 -0 -0 -0 -0 -0
-0 -0 -0 -0 -0 -0 -0 -0 -0 -0 -0 -0 -0 -0 -0 -0 -0 -0 -0 -0 -0 -0 -0 -0 -0 -0 -0 -0 -0 -0 -0 -0 -0 -0 -0 -0 -0 -0 -0 -0 -0 -0 -0
-0 -0 -0 -0 -0 -0 -0 -0 -0 -0 -0 -0 -0 -0 -0 -0 -0 -0 -0 -0 -0 -0 -0 -0 -0 -0 -0 -0 -0 -0 -0 -0 -0 -0 -0 -0 -0 -0 -0 -0 -0 -0 -0
-0 -0 -0 -0 -0 -0 -0 -0 -0 -0 -0 -0 -0 -0 -0 -0 -0 -0 -0 -0 -0 -0 -0 -0 -0 -0 -0 -0 -0 -1 -0 -0 -0 -1 -0 -0 -0 -0 -0 -0 -0 -0 -0
Wind_Speed
17 16 14 15 14 14 13 13 12 13 13 13 15 14 14 14 14 13 13 13 15 15 14 15 16 16 11 10 8 9 13 13 17 13 10 9 11 13 14 16 17 18 14
17 17 17 16 16 15 14 14 13 14 13 12 12 13 13 14 14 16 16 15 16 16 16 16 17 10 8 9 11 14 12 13 12 19 12 10 13 15 16 15 13 13 14
15 16 17 17 17 17 17 14 14 14 14 15 15 15 15 15 15 16 16 17 17 17 16 16 14 11 13 13 12 11 10 10 12 12 13 7 8 2 7 1 4 4 2
16 16 16 17 16 16 15 16 15 15 16 16 15 15 15 16 17 16 17 16 15 14 11 13 18 15 11 10 10 12 10 11 10 9 10 3 1 1 2 1 1 2 2
17 17 17 15 14 14 14 14 14 15 14 15 14 15 15 13 10 14 13 10 10 11 10 6 12 15 19 15 6 7 6 7 6 5 2 2 3 2 3 2 2 2 2
18 17 16 15 15 15 14 14 13 14 13 13 13 12 8 8 13 11 7 7 10 9 8 9 10 14 16 20 21 23 18 5 4 3 3 2 3 3 2 1 2 2 2
16 16 15 15 15 14 13 13 12 11 5 11 12 13 13 12 19 19 17 11 11 11 10 9 9 9 10 9 13 15 17 19 13 6 5 5 3 4 3 2 2 1 1
14 14 14 13 13 13 8 10 13 12 13 11 13 13 13 11 17 19 20 14 13 13 12 11 9 10 10 7 7 8 8 8 8 5 5 4 3 2 2 2 3 4 5
12 12 12 10 12 14 15 14 13 14 14 13 12 13 14 12 17 16 15 11 12 12 11 10 10 10 15 14 7 7 5 5 6 7 7 7 7 6 6 5 5 6 7
14 13 14 15 16 16 15 15 14 14 14 11 14 14 18 14 18 17 12 7 10 7 8 10 16 12 14 14 7 7 6 6 6 6 3 2 4 3 3 4 5 7 7
16 16 15 16 17 16 16 13 14 15 14 14 14 13 15 15 18 23 18 8 7 7 7 7 7 13 13 12 11 9 8 10 7 8 7 6 6 6 4 4 6 6 6
19 19 15 15 13 13 16 14 14 14 14 13 12 11 10 12 18 20 20 17 11 8 8 7 8 11 11 10 8 9 9 8 6 7 8 7 7 7 6 8 9 9 8
22 20 15 16 15 16 15 13 12 11 10 10 9 9 8 6 7 14 16 15 12 9 7 5 8 10 11 6 5 7 7 7 8 9 8 7 8 9 10 10 10 12 12
21 20 13 16 16 15 13 10 10 9 8 8 9 9 8 9 9 8 8 8 12 9 4 6 6 5 2 4 6 7 8 8 8 9 8 9 10 10 10 10 11 11 10
21 17 15 15 16 15 16 13 12 14 11 10 10 9 9 10 10 14 13 10 9 9 6 7 8 8 8 9 8 9 9 10 10 10 11 10 10 11 11 10 10 12 11
18 13 11 11 12 13 14 16 29 26 28 29 24 15 12 18 16 15 14 16 17 12 6 7 8 9 9 10 10 10 10 11 11 11 10 10 11 11 11 11 11 11 11
16 15 12 11 11 11 11 12 13 18 27 25 24 23 22 18 18 16 12 9 15 11 8 8 8 8 8 9 9 10 10 10 11 10 10 10 10 11 12 11 11 11 11
14 15 11 10 10 10 9 9 8 9 9 9 17 15 17 16 19 19 15 9 8 10 8 8 9 8 8 9 9 9 9 9 9 9 10 10 10 10 10 11 11 11 11
12 10 11 11 10 10 10 10 9 9 9 8 7 10 9 11 15 16 16 9 8 8 8 8 7 8 8 8 8 8 9 9 9 9 9 9 9 10 10 11 11 14 13
14 17 13 10 10 10 9 9 9 8 8 8 8 8 7 7 8 8 9 8 8 7 7 8 8 8 8 8 8 8 9 9 9 9 9 9 9 10 10 11 10 11 11
11 12 14 11 10 9 9 9 9 8 8 8 8 7 9 7 7 7 7 7 7 7 7 7 7 8 7 8 8 9 9 9 9 9 9 10 9 9 10 10 11 11 11
11 11 11 10 9 9 9 9 8 8 7 7 6 6 6 6 6 6 7 7 6 7 6 7 7 7 7 8 8 9 9 9 9 9 10 10 10 10 10 11 11 10 11
12 12 11 10 10 11 9 9 8 7 7 7 6 6 6 5 6 6 6 6 6 7 7 7 7 7 7 7 8 8 9 9 9 10 11 11 11 10 10 11 11 11 11
12 12 11 10 9 9 9 8 7 8 7 6 5 5 5 5 5 6 6 6 6 7 7 6 6 8 8 8 8 8 9 9 9 11 14 12 12 13 11 12 11 13 11
11 10 10 9 9 8 7 7 7 6 6 5 5 5 5 5 5 6 6 6 6 7 8 7 6 9 10 13 13 14 12 13 13 14 11 13 14 16 13 11 12 12 13
10 10 9 8 8 7 7 6 6 5 5 5 4 5 5 5 6 6 6 6 7 8 9 7 9 12 14 12 13 14 15 16 15 15 12 12 12 11 11 13 16 11 13
Wind_Direction
183 187 195 198 194 197 202 191 196 199 197 197 194 202 213 219 225 229 230 233 236 241 237 240 244 245 241 237 229 228 240 241 252 259 248 220 223 219 227 217 223 230 222
184 185 193 199 201 198 205 207 205 206 209 210 217 223 224 226 229 234 237 237 240 248 253 253 253 253 251 240 245 247 243 243 245 257 253 235 231 226 230 227 212 225 232
191 190 191 197 202 205 205 207 204 210 213 219 221 223 229 235 237 237 238 243 246 248 255 258 263 253 250 249 247 245 246 248 245 251 258 257 245 275 244 330 226 201 12
195 198 198 198 204 207 209 207 209 209 215 222 225 230 232 236 238 241 244 242 245 251 252 255 254 250 259 262 257 253 250 247 244 245 253 244 176 34 67 66 351 32 79
197 200 200 199 201 209 210 212 212 216 220 224 228 233 237 241 249 258 253 249 253 254 251 18 47 43 41 35 352 322 293 250 245 245 188 192 164 180 209 164 130 40 354
198 199 196 193 199 202 203 207 212 219 222 228 235 239 249 40 344 14 23 30 45 38 47 54 50 45 52 50 47 48 45 3 13 358 21 357 31 0 24 65 93 167 237
197 196 195 193 196 199 202 204 207 207 202 50 57 65 58 45 40 58 69 66 66 57 54 59 51 48 43 45 44 43 43 46 45 35 47 24 35 16 16 28 25 353 304
190 191 188 190 190 191 177 87 76 71 72 74 66 64 64 50 56 66 71 72 68 62 62 59 60 53 40 41 47 48 46 41 35 40 50 46 50 20 3 333 309 287 273
177 180 176 168 100 90 85 84 82 83 76 72 72 73 71 61 57 67 79 81 80 72 61 56 57 51 36 26 38 35 41 54 59 57 50 32 15 5 2 320 291 282 274
85 74 77 87 90 88 86 84 85 84 86 83 76 67 69 67 57 63 71 78 78 76 70 64 50 42 31 24 22 11 10 22 1 343 327 290 253 281 233 254 298 292 295
88 80 75 79 87 89 91 89 93 91 87 78 77 68 66 61 57 56 55 61 75 75 64 57 44 27 20 14 4 28 15 336 351 341 338 333 324 318 319 321 326 344 327
92 83 83 87 90 91 93 93 92 94 93 90 86 78 67 64 63 61 60 55 55 61 50 38 36 10 9 23 48 29 357 326 351 343 335 336 347 351 3 342 330 317 303
91 91 85 88 89 95 88 89 90 89 92 93 90 88 83 74 82 74 65 55 50 55 53 49 21 26 29 89 47 360 339 8 359 343 336 346 351 337 327 320 313 305 298
93 90 90 91 89 80 78 73 82 88 92 95 94 88 80 61 48 39 43 35 33 29 29 39 16 3 3 21 10 9 20 18 1 350 357 348 339 335 330 332 326 321 315
94 95 91 82 75 76 69 70 68 53 67 80 66 67 72 67 56 58 45 36 23 2 358 19 23 12 8 5 7 7 1 5 4 356 344 333 332 330 328 329 324 320 311
99 100 94 96 92 84 85 84 74 75 72 69 71 78 69 59 51 48 51 42 24 12 28 27 23 15 6 360 359 356 353 355 355 339 338 336 332 328 326 325 318 316 313
100 104 101 97 103 107 103 97 94 75 72 72 72 70 64 55 45 39 36 57 42 24 36 30 25 16 4 2 360 357 351 353 343 340 337 333 328 325 324 324 319 315 317
86 91 100 98 92 91 97 101 98 94 93 90 67 70 62 57 50 40 29 34 41 39 31 28 22 15 4 0 360 353 346 341 339 337 327 328 324 324 322 318 320 323 319
85 83 82 82 81 85 86 89 87 81 79 80 81 75 66 64 57 51 39 39 32 33 21 19 16 11 2 353 355 341 337 335 333 328 326 327 326 321 318 318 315 315 309
81 81 82 81 82 87 91 93 91 89 81 67 55 36 14 46 43 40 44 31 25 22 10 4 5 1 353 346 341 340 337 336 334 330 332 324 325 326 317 313 314 314 314
85 81 84 83 84 84 85 84 84 81 81 86 71 43 6 36 38 37 33 28 16 6 4 354 351 349 346 344 343 338 333 330 330 329 327 329 327 315 315 314 312 315 312
84 84 83 84 85 82 81 81 78 76 76 72 78 90 20 39 31 25 26 22 2 360 355 353 342 344 341 342 336 333 325 325 327 330 327 321 315 313 313 315 314 311 312
90 91 90 89 89 89 81 79 79 80 74 62 52 45 35 27 22 21 11 8 1 353 355 345 342 339 335 342 331 320 321 322 324 327 320 314 310 311 315 306 310 313 313
87 89 86 85 82 88 92 97 92 66 56 54 44 37 28 16 13 12 11 10 357 351 345 346 330 326 334 323 322 323 311 315 317 313 314 310 307 303 306 309 305 303 302
88 93 93 92 93 92 89 76 69 62 58 44 32 22 17 12 6 9 7 360 354 346 337 324 324 325 319 324 306 298 308 330 316 309 299 296 298 300 293 293 298 301 306
90 91 91 89 85 81 78 74 64 56 47 32 24 17 5 3 5 358 352 349 355 331 313 325 318 319 316 308 308 327 324 306 295 291 287 287 286 287 292 305 310 306 302